Wind_Speed
9 9 7 5 4 5 6 4 6 8 8 9 9 8 1 2 1 2 1 8 14 14 13 12 12 13 12 11 10 10 10 10 12 13 14 14 15 17 19 21 22 23 24 23 22 18 15 13 13
8 7 4 8 6 3 2 6 3 7 7 8 8 12 5 7 7 7 5 12 16 16 14 12 12 12 11 10 8 8 8 9 11 13 13 13 14 16 18 20 22 23 25 25 24 23 20 15 13
6 4 4 7 4 2 4 7 7 8 10 11 8 9 9 3 2 6 12 14 15 16 15 12 11 11 11 10 8 8 7 8 9 11 11 11 12 13 14 16 19 20 23 24 24 23 22 18 13
6 2 3 3 5 1 4 7 10 12 11 12 10 5 8 6 10 13 13 14 15 16 15 13 11 11 11 9 8 7 7 7 8 9 9 9 9 10 11 13 15 16 19 20 22 23 21 19 17
5 3 3 3 7 2 6 9 11 16 12 10 8 7 5 8 12 13 14 14 14 13 13 11 10 10 10 9 7 6 6 6 6 7 7 6 6 7 8 10 11 12 14 15 17 20 21 16 19
4 2 3 3 8 8 7 12 14 17 12 6 9 11 6 7 13 15 15 14 13 12 11 10 9 9 9 9 7 6 6 6 6 5 5 4 4 4 5 6 8 10 11 13 14 16 17 17 15
6 3 5 7 1 5 8 13 17 17 5 6 4 4 4 6 9 15 16 15 13 12 11 10 9 8 8 8 7 6 5 5 5 5 4 2 1 1 2 5 7 9 11 13 15 15 15 14 12
6 3 6 6 8 4 7 16 15 16 10 5 1 4 4 4 5 10 13 13 13 12 11 10 9 9 8 8 7 6 5 4 4 3 3 1 1 1 3 5 7 8 10 12 13 13 13 12 10
10 7 6 4 6 4 10 16 18 14 10 8 5 8 9 7 6 7 10 11 9 8 9 9 9 9 9 8 7 5 4 4 3 2 1 0 1 2 3 5 7 8 9 10 11 12 13 13 12
14 14 8 4 5 4 7 14 20 17 13 13 11 14 14 7 7 10 12 12 13 14 11 10 8 8 8 8 7 5 5 4 3 2 1 1 2 4 5 5 7 8 8 9 11 11 12 13 12
20 18 14 7 2 4 5 11 12 15 15 13 14 17 16 11 8 16 16 15 11 11 15 14 11 9 8 7 6 4 4 3 2 2 2 3 4 6 7 8 9 10 10 10 10 11 12 13 14
23 23 19 14 10 3 6 8 13 13 8 10 18 20 16 15 6 5 14 10 13 13 14 15 15 12 10 7 6 4 4 3 3 3 3 4 5 7 8 10 11 13 13 14 14 14 15 15 16
30 27 23 20 16 9 7 7 10 9 7 10 20 17 13 12 12 8 9 13 12 11 12 14 12 11 9 6 6 6 5 4 4 4 5 5 6 7 8 9 11 12 13 15 16 17 17 18 18
27 32 31 27 21 18 12 11 11 11 10 13 16 14 12 14 14 13 6 6 11 9 7 8 10 9 8 7 7 6 5 5 6 6 7 8 8 8 10 10 13 14 14 15 16 16 17 18 20
23 21 26 31 28 25 19 18 14 15 13 19 20 19 17 15 16 8 7 9 9 9 12 8 6 11 7 6 8 8 9 9 10 10 10 11 12 11 13 13 14 15 18 17 18 20 18 20 20
21 23 18 22 27 26 23 24 17 19 17 19 21 22 20 20 15 10 11 11 13 14 10 10 8 10 13 7 7 8 9 12 14 16 15 17 16 16 17 18 18 20 20 20 23 22 22 24 24
17 13 12 18 19 22 22 20 24 22 20 20 24 24 23 24 23 14 14 11 12 14 17 14 14 12 13 17 13 12 12 13 15 17 18 20 19 19 21 22 23 25 24 24 24 24 22 24 28
11 11 12 13 12 20 22 23 22 22 21 24 25 27 28 26 27 21 18 16 14 15 18 17 18 18 19 22 22 16 16 16 15 18 20 20 20 22 24 23 23 25 28 27 26 26 26 27 30
16 17 18 19 16 22 23 22 24 21 25 26 26 28 33 28 24 27 22 21 21 17 20 19 20 18 20 23 26 19 17 18 17 17 20 19 21 25 24 23 24 25 27 30 30 31 27 31 28
15 17 19 20 14 19 24 28 27 25 23 25 27 28 27 27 27 26 24 22 19 21 18 17 20 22 23 23 24 23 21 22 19 18 21 25 26 24 26 25 26 26 29 30 30 30 27 27 29
17 21 21 18 16 16 20 27 27 27 23 19 21 25 29 28 30 25 26 24 22 22 22 19 17 22 24 24 27 24 22 22 21 23 22 19 22 21 25 29 31 32 31 30 29 27 27 26 27
17 16 14 15 16 11 8 14 20 24 26 20 20 22 25 29 31 31 27 29 26 25 27 27 22 21 23 24 26 24 22 22 23 24 21 21 22 24 25 28 28 29 27 26 28 27 26 26 26
11 8 14 18 18 19 19 13 19 17 27 24 18 13 18 28 30 28 28 31 32 29 30 31 30 26 23 23 25 25 23 22 24 23 23 22 23 23 23 23 25 23 28 26 25 25 25 23 21
19 24 23 24 23 17 24 20 21 20 23 26 23 19 15 13 26 30 30 29 29 32 32 32 34 29 28 27 28 26 24 25 24 24 23 23 24 23 21 20 22 23 23 21 21 22 21 21 21
18 14 9 8 10 15 19 18 23 15 15 18 21 18 16 19 19 21 28 30 31 33 34 37 32 28 30 29 28 28 26 25 25 24 23 24 24 20 19 19 20 20 19 16 17 18 18 18 19
14 12 11 11 10 14 17 13 20 15 16 16 17 23 24 24 24 23 25 27 31 34 36 39 33 29 31 32 32 32 28 27 25 23 24 23 22 20 19 18 17 16 14 14 15 15 16 18 20
7 9 13 20 25 17 23 28 29 28 28 29 32 28 27 29 29 24 23 28 30 32 35 38 37 35 35 40 37 36 28 25 24 22 23 22 22 19 19 15 15 14 13 14 15 15 16 18 20
9 16 9 12 9 18 17 17 19 13 16 18 21 21 22 22 23 25 26 28 29 35 37 40 40 40 42 41 39 32 22 18 18 19 19 21 19 19 17 16 15 14 15 15 15 15 17 18 20
25 13 13 11 10 9 16 18 16 18 22 26 30 32 32 32 30 31 35 34 29 31 30 32 41 45 46 40 37 28 20 19 16 20 23 27 29 21 19 17 17 16 16 15 16 17 19 20 21
6 4 9 5 9 11 10 17 14 14 10 13 18 21 22 25 28 30 31 31 31 30 29 30 37 43 40 37 36 32 29 31 27 19 17 20 23 20 21 19 19 18 18 19 19 20 22 23 24
Wind_Direction
332 3 21 88 83 105 151 159 152 156 165 169 181 184 220 217 152 87 62 169 150 141 134 133 129 125 119 116 113 110 109 108 109 108 102 93 84 77 73 69 66 66 66 62 59 55 55 59 60
320 6 42 72 94 119 246 173 174 181 181 197 201 230 265 288 283 257 276 167 152 146 144 143 138 132 123 117 114 110 112 113 115 115 108 97 87 79 73 68 66 67 67 65 61 57 54 60 70
307 13 113 122 124 102 237 208 201 196 203 204 216 236 265 268 169 161 160 160 158 150 148 149 145 139 128 128 128 122 116 112 114 116 110 100 88 79 74 70 67 65 64 63 62 58 53 57 65
285 345 196 194 185 85 153 196 185 188 198 222 232 250 248 195 133 139 160 158 160 153 152 153 152 144 136 136 131 124 116 113 117 123 116 104 95 81 68 64 62 58 58 56 59 59 56 60 63
274 269 214 215 212 266 186 173 191 178 173 195 213 269 213 178 150 149 160 160 158 152 147 149 152 146 139 136 134 126 117 114 118 125 124 115 101 79 60 52 49 45 47 47 48 54 56 57 57
264 256 127 191 247 243 202 180 195 178 165 268 237 299 228 169 151 157 164 162 158 148 143 144 147 150 148 145 142 135 129 125 118 122 137 135 104 75 50 39 33 29 24 28 31 37 42 50 45
245 231 160 84 132 223 209 180 195 185 277 309 330 271 233 180 175 165 168 164 161 150 146 147 148 150 149 148 145 142 141 133 118 116 125 138 120 45 17 7 8 8 5 10 14 15 24 33 42
246 215 189 109 79 50 202 182 191 209 276 250 111 199 154 147 177 185 176 171 168 160 153 153 146 144 147 154 156 155 147 126 115 108 105 119 201 285 318 334 340 345 347 355 359 360 1 8 14
230 223 209 156 70 94 176 191 201 212 255 235 241 205 182 138 115 182 182 174 167 163 155 157 153 147 150 155 157 155 152 144 140 134 129 261 301 307 309 307 311 316 324 330 339 343 345 348 347
231 223 229 187 90 70 180 181 209 232 248 255 237 205 189 161 163 160 153 142 143 129 131 152 155 155 148 150 154 158 162 163 160 157 218 284 296 296 289 291 292 292 304 315 319 326 329 334 334
228 230 225 210 224 46 121 173 198 218 240 238 213 206 192 184 165 162 139 119 125 135 124 122 139 146 143 143 146 159 167 179 196 211 238 267 281 286 288 287 287 291 296 297 301 310 316 324 327
234 233 233 238 242 252 135 189 205 223 232 214 204 203 202 210 188 174 189 151 129 127 136 128 119 118 127 137 142 160 176 199 221 238 242 257 280 295 297 293 293 293 298 302 305 309 314 317 317
237 240 243 247 237 238 196 215 231 194 208 198 194 190 196 197 202 186 180 192 168 145 147 142 146 142 139 152 159 167 188 202 216 235 231 254 270 281 291 301 297 299 303 304 308 310 311 311 309
239 244 246 245 245 248 248 246 221 197 224 214 204 201 215 205 202 204 173 212 205 183 170 161 171 162 167 177 187 194 204 212 222 230 238 249 263 280 289 304 308 314 314 314 316 312 309 305 303
235 235 243 248 247 253 253 255 235 215 216 217 214 218 223 220 202 206 196 195 207 210 200 193 180 208 199 182 215 233 237 238 241 249 259 267 267 275 281 293 300 301 303 305 306 303 302 308 316
236 244 243 248 250 254 253 249 251 244 237 222 219 222 228 228 226 212 214 213 202 212 226 214 212 220 224 227 256 256 248 257 260 259 264 268 277 281 283 280 286 294 294 295 297 309 297 306 311
243 243 248 248 242 240 245 246 249 241 236 229 224 226 233 235 234 237 235 248 218 205 225 235 224 230 237 240 249 265 278 275 272 266 264 266 271 278 283 286 291 292 289 291 293 296 294 290 295
247 263 260 240 229 224 227 231 230 226 227 227 228 226 230 238 240 251 246 257 234 219 219 217 233 233 238 242 243 264 279 283 273 267 263 263 262 271 277 278 281 284 287 290 291 292 288 286 291
255 259 265 260 245 251 239 245 231 231 237 238 233 226 229 237 251 249 244 247 248 231 229 231 232 233 241 250 246 265 276 278 275 261 259 261 264 269 270 267 270 273 281 284 283 287 283 282 287
263 270 271 280 281 271 263 262 251 242 250 250 247 242 242 244 246 249 243 244 236 245 241 238 239 239 243 249 254 261 275 282 279 270 260 262 264 275 273 275 273 275 279 289 288 295 292 291 289
267 264 276 290 299 278 274 271 257 249 249 242 238 237 245 239 240 251 247 238 241 252 251 242 246 239 245 248 253 263 272 276 276 276 272 272 284 276 281 286 287 289 292 291 294 293 292 297 300
279 284 284 295 294 270 273 280 260 250 245 250 245 246 249 241 237 236 244 244 248 257 255 248 245 243 242 253 258 266 269 266 273 281 287 284 286 290 287 291 290 288 298 295 297 299 302 305 307
304 295 285 292 289 283 272 262 265 259 250 251 250 262 258 244 229 230 236 247 254 254 255 252 250 249 245 255 263 264 267 266 275 280 284 275 280 283 286 281 290 278 286 291 294 298 302 306 314
290 295 294 290 285 260 265 246 264 251 258 257 264 263 262 264 239 238 242 246 249 255 257 257 250 249 247 253 258 263 262 264 274 277 275 269 273 279 284 274 276 278 281 289 295 299 306 310 311
281 282 284 268 244 262 271 261 256 261 264 262 264 264 263 264 259 256 250 246 250 258 263 260 258 258 248 249 252 255 257 262 265 270 271 267 269 272 271 271 275 280 283 289 292 295 297 301 303
285 258 253 271 272 285 282 261 264 267 251 263 263 265 269 267 267 264 259 250 244 250 258 259 256 252 251 256 255 256 249 258 263 263 265 268 270 269 270 270 271 271 275 278 283 287 296 301 302
302 271 275 278 273 277 265 269 278 274 277 278 271 272 274 272 269 264 261 256 254 253 253 251 250 252 252 253 254 244 245 253 255 261 264 266 266 266 263 260 265 267 277 280 281 287 292 294 297
287 293 292 256 270 260 255 263 265 272 260 255 261 256 256 257 260 258 252 271 267 256 252 246 248 249 249 249 244 238 239 244 260 266 270 266 262 256 253 252 255 259 264 270 279 287 289 289 289
291 293 280 291 277 279 276 266 249 254 253 254 251 253 256 256 255 257 265 268 257 253 256 255 248 248 248 244 234 231 231 245 252 274 276 276 276 246 245 247 253 257 262 271 277 283 289 291 292
277 284 342 341 290 290 277 257 252 249 249 265 262 257 264 265 257 259 264 266 259 259 268 261 250 247 248 234 231 238 240 242 241 254 268 260 250 247 245 245 250 256 265 271 281 291 295 294 293
Height
3188 3188 3187 3186 3190 3186 3185 3187 3185 3186 3187 3187 3188 3189 3190 3189 3191 3194 3192 3193 3194 3196 3198 3199 3200 3200 3201 3202 3204 3205 3205 3206 3206 3207 3207 3206 3206 3205 3205 3204 3203 3202 3201 3200 3198 3197 3195 3195 3194
3188 3189 3188 3187 3189 3188 3187 3187 3188 3188 3188 3188 3188 3189 3190 3190 3190 3191 3192 3194 3195 3196 3198 3199 3201 3202 3203 3204 3206 3207 3207 3208 3208 3208 3209 3208 3208 3207 3207 3206 3205 3204 3203 3202 3200 3199 3197 3196 3195
3188 3189 3189 3188 3188 3189 3189 3188 3189 3189 3189 3189 3189 3189 3189 3189 3189 3190 3192 3194 3196 3197 3198 3200 3202 3203 3204 3205 3207 3208 3209 3209 3210 3210 3210 3210 3210 3210 3209 3208 3207 3206 3205 3204 3203 3201 3199 3197 3196
3188 3190 3190 3189 3189 3188 3188 3189 3189 3189 3190 3190 3190 3191 3190 3190 3189 3191 3193 3195 3197 3197 3198 3200 3202 3204 3205 3206 3207 3209 3210 3210 3210 3211 3211 3211 3211 3211 3210 3210 3209 3208 3207 3206 3205 3203 3201 3200 3198
3187 3189 3189 3189 3188 3187 3187 3188 3190 3189 3189 3190 3190 3191 3191 3191 3190 3192 3194 3195 3197 3198 3199 3202 3204 3205 3206 3207 3208 3209 3211 3211 3211 3212 3212 3212 3212 3212 3212 3211 3210 3209 3208 3208 3207 3206 3204 3203 3201
3187 3188 3189 3189 3187 3186 3186 3187 3189 3190 3190 3192 3191 3191 3192 3191 3191 3192 3194 3196 3198 3199 3201 3203 3204 3206 3206 3207 3208 3210 3211 3211 3212 3212 3212 3213 3213 3213 3213 3212 3211 3210 3209 3209 3209 3207 3206 3205 3204
3187 3188 3188 3187 3185 3185 3185 3186 3189 3190 3190 3191 3192 3193 3194 3193 3192 3193 3194 3196 3198 3200 3201 3203 3204 3205 3207 3208 3209 3210 3211 3211 3212 3212 3212 3213 3213 3213 3213 3212 3212 3211 3210 3209 3209 3208 3207 3206 3205
3185 3187 3187 3186 3185 3184 3183 3185 3188 3190 3192 3192 3194 3195 3195 3194 3194 3194 3195 3197 3198 3200 3201 3203 3204 3205 3206 3207 3208 3209 3211 3211 3212 3212 3212 3213 3212 3213 3213 3212 3212 3211 3210 3209 3209 3208 3206 3205 3204
3183 3186 3185 3185 3184 3183 3183 3185 3188 3190 3191 3193 3194 3194 3195 3194 3194 3194 3196 3197 3199 3200 3201 3203 3204 3205 3206 3207 3208 3209 3210 3210 3211 3212 3212 3212 3212 3212 3212 3212 3211 3211 3209 3209 3208 3208 3206 3205 3204
3181 3183 3183 3183 3183 3183 3183 3184 3187 3189 3190 3191 3193 3193 3195 3195 3195 3196 3196 3198 3199 3200 3201 3202 3203 3205 3206 3206 3207 3208 3209 3210 3211 3211 3211 3211 3211 3211 3212 3211 3210 3209 3208 3208 3207 3206 3206 3205 3204
3178 3180 3182 3182 3182 3183 3183 3184 3186 3188 3188 3190 3192 3192 3194 3195 3196 3196 3197 3198 3200 3200 3201 3202 3203 3204 3205 3206 3207 3208 3209 3210 3210 3210 3210 3210 3210 3210 3210 3209 3208 3207 3207 3206 3205 3205 3204 3203 3202
3176 3177 3179 3180 3182 3183 3183 3185 3185 3186 3187 3188 3189 3191 3194 3195 3196 3197 3197 3198 3199 3200 3201 3202 3203 3204 3205 3206 3206 3207 3208 3209 3209 3209 3209 3209 3209 3209 3208 3207 3207 3206 3206 3205 3204 3203 3203 3202 3201
3173 3175 3176 3178 3180 3182 3183 3184 3184 3184 3186 3187 3188 3190 3192 3194 3196 3196 3197 3198 3198 3200 3201 3202 3203 3203 3205 3205 3206 3206 3207 3207 3208 3208 3208 3207 3207 3207 3206 3206 3204 3204 3204 3203 3203 3202 3201 3200 3198
3169 3171 3173 3176 3178 3180 3181 3182 3183 3185 3184 3185 3187 3188 3191 3192 3194 3195 3195 3196 3198 3199 3200 3201 3201 3203 3204 3204 3205 3205 3206 3206 3206 3206 3206 3205 3205 3205 3204 3204 3203 3203 3202 3201 3201 3200 3198 3197 3195
3165 3168 3169 3173 3176 3177 3179 3179 3180 3182 3182 3184 3185 3186 3188 3190 3192 3193 3194 3195 3196 3197 3198 3199 3200 3201 3202 3203 3204 3204 3204 3204 3204 3204 3204 3203 3202 3203 3202 3202 3201 3200 3200 3198 3197 3196 3195 3194 3192
3162 3164 3167 3170 3172 3173 3175 3175 3178 3178 3179 3180 3182 3184 3185 3187 3190 3191 3191 3192 3192 3194 3195 3196 3198 3199 3200 3201 3201 3202 3202 3202 3202 3201 3202 3201 3201 3200 3200 3199 3199 3197 3195 3195 3194 3192 3190 3189 3187
3159 3162 3162 3166 3167 3169 3170 3170 3173 3174 3174 3176 3178 3180 3182 3184 3185 3187 3188 3188 3189 3190 3192 3193 3195 3196 3198 3198 3198 3198 3198 3199 3198 3198 3199 3197 3197 3197 3196 3196 3196 3193 3191 3190 3188 3187 3185 3183 3181
3158 3159 3160 3162 3164 3163 3163 3164 3167 3169 3169 3170 3171 3174 3177 3178 3180 3183 3184 3184 3186 3186 3188 3189 3191 3193 3194 3194 3194 3194 3195 3195 3194 3194 3193 3193 3194 3193 3192 3191 3190 3187 3184 3183 3183 3182 3180 3178 3176
3156 3156 3156 3157 3160 3159 3159 3159 3161 3162 3163 3164 3165 3166 3169 3171 3174 3176 3178 3179 3181 3182 3182 3184 3186 3188 3188 3189 3188 3190 3191 3190 3190 3189 3189 3188 3188 3187 3185 3185 3184 3182 3179 3178 3177 3176 3174 3172 3171
3153 3152 3152 3153 3154 3153 3153 3151 3153 3155 3156 3157 3159 3160 3162 3165 3167 3169 3172 3173 3174 3177 3178 3180 3180 3182 3184 3184 3184 3185 3184 3184 3184 3183 3183 3183 3182 3181 3180 3178 3178 3177 3175 3173 3172 3171 3169 3167 3166
3149 3149 3149 3150 3149 3148 3147 3144 3145 3148 3149 3150 3152 3154 3154 3156 3159 3163 3165 3166 3168 3171 3172 3174 3175 3177 3178 3178 3178 3179 3179 3179 3178 3178 3176 3176 3175 3174 3172 3171 3170 3169 3168 3167 3165 3164 3162 3160 3159
3146 3146 3146 3146 3145 3145 3144 3138 3138 3140 3143 3145 3146 3147 3148 3148 3151 3156 3158 3160 3162 3164 3166 3168 3170 3171 3172 3174 3174 3174 3174 3174 3173 3171 3170 3169 3169 3167 3166 3166 3164 3162 3161 3159 3158 3156 3155 3154 3152
3144 3143 3142 3141 3140 3139 3140 3139 3131 3133 3136 3139 3140 3140 3141 3140 3143 3148 3151 3154 3156 3157 3159 3162 3164 3166 3167 3169 3169 3170 3170 3170 3168 3166 3165 3164 3163 3162 3162 3161 3160 3158 3157 3156 3154 3153 3151 3149 3147
3141 3140 3138 3135 3134 3129 3131 3131 3125 3128 3129 3132 3134 3135 3136 3136 3138 3141 3144 3146 3148 3149 3152 3154 3156 3158 3160 3163 3164 3163 3163 3163 3163 3161 3160 3160 3159 3159 3159 3158 3157 3156 3154 3152 3150 3148 3147 3145 3143
3137 3137 3135 3129 3125 3118 3123 3120 3119 3122 3124 3126 3128 3129 3130 3131 3132 3134 3135 3138 3139 3140 3144 3146 3148 3151 3153 3155 3157 3158 3157 3156 3156 3155 3156 3155 3155 3155 3154 3153 3152 3151 3150 3149 3147 3145 3144 3141 3140
3132 3134 3131 3124 3120 3116 3118 3110 3112 3116 3119 3121 3122 3124 3124 3125 3126 3127 3129 3129 3129 3131 3134 3138 3141 3144 3147 3146 3148 3149 3148 3149 3149 3149 3150 3149 3149 3149 3148 3147 3146 3146 3145 3143 3142 3141 3139 3138 3136
3130 3130 3128 3124 3120 3116 3111 3107 3107 3110 3112 3115 3114 3114 3116 3118 3120 3120 3121 3120 3121 3122 3123 3129 3133 3137 3139 3139 3140 3142 3142 3143 3145 3144 3144 3144 3144 3142 3142 3141 3141 3140 3140 3139 3138 3136 3135 3133 3132
3127 3126 3124 3121 3114 3107 3099 3102 3102 3103 3103 3104 3104 3104 3106 3107 3109 3111 3112 3112 3113 3113 3116 3121 3124 3127 3128 3130 3132 3133 3134 3137 3139 3139 3138 3138 3138 3138 3137 3136 3136 3136 3135 3135 3134 3132 3131 3129 3127
3122 3122 3122 3121 3117 3107 3096 3095 3094 3096 3096 3097 3096 3096 3097 3099 3100 3101 3102 3103 3104 3104 3107 3110 3113 3115 3118 3120 3123 3125 3126 3127 3130 3133 3131 3132 3132 3132 3131 3131 3132 3132 3132 3130 3129 3127 3125 3124 3121
3118 3119 3119 3120 3114 3112 3107 3091 3092 3092 3091 3090 3090 3089 3089 3091 3093 3093 3092 3093 3095 3096 3097 3098 3100 3104 3108 3112 3114 3117 3116 3116 3117 3122 3123 3125 3126 3126 3128 3127 3128 3127 3127 3126 3125 3123 3121 3119 3116